Time,TemperatureF,DewpointF,PressureIn,WindDirection,WindDirectionDegrees,WindSpeedMPH,WindSpeedGustMPH,Humidity,HourlyPrecipIn,Conditions,Clouds,dailyrainin,SolarRadiationWatts/m^2,SoftwareType,DateUTC
2013-12-31 00:12:00,-3.0,-9.0,-100.00,WSW,248,3.0,4.0,75,0.00,,,0.01,0.000000,,2013-12-31 06:12:00,
2013-12-31 00:22:00,-3.0,-9.0,-100.00,WSW,248,3.0,4.0,75,0.00,,,0.01,0.000000,,2013-12-31 06:22:00,
2013-12-31 00:32:00,-3.0,-9.0,-100.00,WSW,248,3.0,4.0,75,0.00,,,0.01,0.000000,,2013-12-31 06:32:00,
2013-12-31 00:43:00,-3.0,-9.0,-100.00,WSW,248,3.0,4.0,75,0.00,,,0.01,0.000000,,2013-12-31 06:43:00,
2013-12-31 01:12:00,-2.0,-8.0,-100.00,WSW,258,3.0,5.0,75,0.00,,,0.01,0.000000,,2013-12-31 07:12:00,
2013-12-31 01:22:00,-2.0,-8.0,-100.00,WSW,258,3.0,5.0,75,0.00,,,0.01,0.000000,,2013-12-31 07:22:00,
2013-12-31 01:32:00,-2.0,-8.0,-100.00,WSW,258,3.0,5.0,75,0.00,,,0.01,0.000000,,2013-12-31 07:32:00,
2013-12-31 01:42:00,-2.0,-8.0,-100.00,WSW,258,3.0,5.0,75,0.00,,,0.01,0.000000,,2013-12-31 07:42:00,
2013-12-31 02:11:00,-1.0,-7.0,-100.00,WSW,255,3.0,6.0,74,0.00,,,0.01,0.000000,,2013-12-31 08:11:00,
2013-12-31 02:22:00,-1.0,-7.0,-100.00,WSW,255,3.0,6.0,74,0.00,,,0.01,0.000000,,2013-12-31 08:22:00,
2013-12-31 02:32:00,-1.0,-7.0,-100.00,WSW,255,3.0,6.0,74,0.00,,,0.01,0.000000,,2013-12-31 08:32:00,
2013-12-31 02:42:00,-1.0,-7.0,-100.00,WSW,255,3.0,6.0,74,0.00,,,0.01,0.000000,,2013-12-31 08:42:00,
2013-12-31 03:11:00,-1.0,-7.0,-100.00,WSW,244,3.0,6.0,74,0.00,,,0.01,0.000000,,2013-12-31 09:11:00,
2013-12-31 03:22:00,-1.0,-7.0,-100.00,WSW,244,3.0,6.0,74,0.00,,,0.01,0.000000,,2013-12-31 09:22:00,
2013-12-31 03:33:00,-1.0,-7.0,-100.00,WSW,244,3.0,6.0,74,0.00,,,0.01,0.000000,,2013-12-31 09:33:00,
2013-12-31 03:43:00,-1.0,-7.0,-100.00,WSW,244,3.0,6.0,74,0.00,,,0.01,0.000000,,2013-12-31 09:43:00,
2013-12-31 04:13:00,0.0,-6.0,-100.00,WNW,296,4.0,6.0,74,0.00,,,0.01,0.000000,,2013-12-31 10:13:00,
2013-12-31 04:23:00,0.0,-6.0,-100.00,WNW,296,4.0,6.0,74,0.00,,,0.01,0.000000,,2013-12-31 10:23:00,
2013-12-31 04:33:00,0.0,-6.0,-100.00,WNW,296,4.0,6.0,74,0.00,,,0.01,0.000000,,2013-12-31 10:33:00,
2013-12-31 04:43:00,0.0,-6.0,-100.00,WNW,296,4.0,6.0,74,0.00,,,0.01,0.000000,,2013-12-31 10:43:00,
2013-12-31 05:12:00,0.0,-7.0,-100.00,WNW,282,4.0,5.0,73,0.00,,,0.01,0.000000,,2013-12-31 11:12:00,
2013-12-31 05:22:00,0.0,-7.0,-100.00,WNW,282,4.0,5.0,73,0.00,,,0.01,0.000000,,2013-12-31 11:22:00,
2013-12-31 05:33:00,0.0,-7.0,-100.00,WNW,282,4.0,5.0,73,0.00,,,0.01,0.000000,,2013-12-31 11:33:00,
2013-12-31 05:43:00,0.0,-7.0,-100.00,WNW,282,4.0,5.0,73,0.00,,,0.01,0.000000,,2013-12-31 11:43:00,
2013-12-31 06:11:00,0.0,-7.0,-100.00,West,267,5.0,7.0,73,0.00,,,0.01,0.000000,,2013-12-31 12:11:00,
2013-12-31 06:22:00,0.0,-7.0,-100.00,West,267,5.0,7.0,73,0.00,,,0.01,0.000000,,2013-12-31 12:22:00,
2013-12-31 06:33:00,0.0,-7.0,-100.00,West,267,5.0,7.0,73,0.00,,,0.01,0.000000,,2013-12-31 12:33:00,
2013-12-31 06:42:00,0.0,-7.0,-100.00,West,267,5.0,7.0,73,0.00,,,0.01,0.000000,,2013-12-31 12:42:00,
2013-12-31 07:12:00,0.0,-7.0,-100.00,WSW,254,5.0,8.0,73,0.00,,,0.01,0.000000,,2013-12-31 13:12:00,
2013-12-31 07:22:00,0.0,-7.0,-100.00,WSW,254,5.0,8.0,73,0.00,,,0.01,0.000000,,2013-12-31 13:22:00,
2013-12-31 07:32:00,0.0,-7.0,-100.00,WSW,254,5.0,8.0,73,0.00,,,0.01,0.000000,,2013-12-31 13:32:00,
2013-12-31 07:42:00,0.0,-7.0,-100.00,WSW,254,5.0,8.0,73,0.00,,,0.01,0.000000,,2013-12-31 13:42:00,
2013-12-31 08:11:00,-5.0,-11.0,-100.00,NW,308,2.0,7.0,73,0.00,,,0.01,2.000000,,2013-12-31 14:11:00,
2013-12-31 08:23:00,-5.0,-11.0,-100.00,NW,308,2.0,7.0,73,0.00,,,0.01,2.000000,,2013-12-31 14:23:00,
2013-12-31 08:32:00,-5.0,-11.0,-100.00,NW,308,2.0,7.0,73,0.00,,,0.01,2.000000,,2013-12-31 14:32:00,
2013-12-31 08:42:00,-5.0,-11.0,-100.00,NW,308,2.0,7.0,73,0.00,,,0.01,2.000000,,2013-12-31 14:42:00,
2013-12-31 09:11:00,-2.0,-8.0,-100.00,WSW,240,5.0,6.0,74,0.00,,,0.01,35.000000,,2013-12-31 15:11:00,
2013-12-31 09:22:00,-2.0,-8.0,-100.00,WSW,240,5.0,6.0,74,0.00,,,0.01,35.000000,,2013-12-31 15:22:00,
2013-12-31 09:33:00,-2.0,-8.0,-100.00,WSW,240,5.0,6.0,74,0.00,,,0.01,35.000000,,2013-12-31 15:33:00,
2013-12-31 09:43:00,-2.0,-8.0,-100.00,WSW,240,5.0,6.0,74,0.00,,,0.01,35.000000,,2013-12-31 15:43:00,
2013-12-31 10:13:00,1.0,-8.0,-100.00,West,272,9.0,14.0,66,0.00,,,0.01,112.000000,,2013-12-31 16:13:00,
2013-12-31 10:23:00,1.0,-8.0,-100.00,West,272,9.0,14.0,66,0.00,,,0.01,112.000000,,2013-12-31 16:23:00,
2013-12-31 10:33:00,1.0,-8.0,-100.00,West,272,9.0,14.0,66,0.00,,,0.01,112.000000,,2013-12-31 16:33:00,
2013-12-31 10:42:00,1.0,-8.0,-100.00,West,272,9.0,14.0,66,0.00,,,0.01,112.000000,,2013-12-31 16:42:00,
2013-12-31 11:12:00,3.0,-7.0,-100.00,West,265,7.0,15.0,63,0.00,,,0.01,207.000000,,2013-12-31 17:12:00,
2013-12-31 11:22:00,3.0,-7.0,-100.00,West,265,7.0,15.0,63,0.00,,,0.01,207.000000,,2013-12-31 17:22:00,
2013-12-31 11:32:00,3.0,-7.0,-100.00,West,265,7.0,15.0,63,0.00,,,0.01,207.000000,,2013-12-31 17:32:00,
2013-12-31 11:42:00,3.0,-7.0,-100.00,West,265,7.0,15.0,63,0.00,,,0.01,207.000000,,2013-12-31 17:42:00,
2013-12-31 12:12:00,4.0,-6.0,-100.00,WNW,282,9.0,15.0,61,0.00,,,0.01,204.000000,,2013-12-31 18:12:00,
2013-12-31 12:22:00,4.0,-6.0,-100.00,WNW,282,9.0,15.0,61,0.00,,,0.01,204.000000,,2013-12-31 18:22:00,
2013-12-31 12:32:00,4.0,-6.0,-100.00,WNW,282,9.0,15.0,61,0.00,,,0.01,204.000000,,2013-12-31 18:32:00,
2013-12-31 12:42:00,4.0,-6.0,-100.00,WNW,282,9.0,15.0,61,0.00,,,0.01,204.000000,,2013-12-31 18:42:00,
2013-12-31 13:12:00,5.0,-7.0,-100.00,WNW,292,8.0,15.0,58,0.00,,,0.01,207.000000,,2013-12-31 19:12:00,
2013-12-31 13:22:00,5.0,-7.0,-100.00,WNW,292,8.0,15.0,58,0.00,,,0.01,207.000000,,2013-12-31 19:22:00,
2013-12-31 13:32:00,5.0,-7.0,-100.00,WNW,292,8.0,15.0,58,0.00,,,0.01,207.000000,,2013-12-31 19:32:00,
2013-12-31 13:43:00,5.0,-7.0,-100.00,WNW,292,8.0,15.0,58,0.00,,,0.01,207.000000,,2013-12-31 19:43:00,
2013-12-31 14:11:00,4.0,-8.0,-100.00,WNW,285,9.0,14.0,56,0.00,,,0.01,166.000000,,2013-12-31 20:11:00,
2013-12-31 14:21:00,4.0,-8.0,-100.00,WNW,285,9.0,14.0,56,0.00,,,0.01,166.000000,,2013-12-31 20:21:00,
2013-12-31 14:32:00,4.0,-8.0,-100.00,WNW,285,9.0,14.0,56,0.00,,,0.01,166.000000,,2013-12-31 20:32:00,
2013-12-31 14:42:00,4.0,-8.0,-100.00,WNW,285,9.0,14.0,56,0.00,,,0.01,166.000000,,2013-12-31 20:42:00,
2013-12-31 15:22:00,5.0,-8.0,-100.00,WNW,301,8.0,14.0,55,0.00,,,0.01,126.000000,,2013-12-31 21:22:00,
2013-12-31 15:33:00,5.0,-8.0,-100.00,WNW,301,8.0,14.0,55,0.00,,,0.01,126.000000,,2013-12-31 21:33:00,
2013-12-31 15:43:00,5.0,-8.0,-100.00,WNW,301,8.0,14.0,55,0.00,,,0.01,126.000000,,2013-12-31 21:43:00,
2013-12-31 16:13:00,5.0,-8.0,-100.00,NW,307,7.0,12.0,53,0.00,,,0.01,68.000000,,2013-12-31 22:13:00,
2013-12-31 16:23:00,5.0,-8.0,-100.00,NW,307,7.0,12.0,53,0.00,,,0.01,68.000000,,2013-12-31 22:23:00,
2013-12-31 16:34:00,5.0,-8.0,-100.00,NW,307,7.0,12.0,53,0.00,,,0.01,68.000000,,2013-12-31 22:34:00,
2013-12-31 16:43:00,5.0,-8.0,-100.00,NW,307,7.0,12.0,53,0.00,,,0.01,68.000000,,2013-12-31 22:43:00,
2013-12-31 17:12:00,4.0,-9.0,-100.00,NW,313,8.0,11.0,53,0.00,,,0.01,9.000000,,2013-12-31 23:12:00,
2013-12-31 17:22:00,4.0,-9.0,-100.00,NW,313,8.0,11.0,53,0.00,,,0.01,9.000000,,2013-12-31 23:22:00,
2013-12-31 17:33:00,4.0,-9.0,-100.00,NW,313,8.0,11.0,53,0.00,,,0.01,9.000000,,2013-12-31 23:33:00,
2013-12-31 17:43:00,4.0,-9.0,-100.00,NW,313,8.0,11.0,53,0.00,,,0.01,9.000000,,2013-12-31 23:43:00,
2013-12-31 18:12:00,3.0,-10.0,-100.00,NW,308,6.0,11.0,54,0.00,,,0.01,0.000000,,2014-01-01 00:12:00,
2013-12-31 18:22:00,3.0,-10.0,-100.00,NW,308,6.0,11.0,54,0.00,,,0.01,0.000000,,2014-01-01 00:22:00,
2013-12-31 18:32:00,3.0,-10.0,-100.00,NW,308,6.0,11.0,54,0.00,,,0.01,0.000000,,2014-01-01 00:32:00,
2013-12-31 18:42:00,3.0,-10.0,-100.00,NW,308,6.0,11.0,54,0.00,,,0.01,0.000000,,2014-01-01 00:42:00,
2013-12-31 19:11:00,2.0,-11.0,-100.00,NNW,336,6.0,10.0,54,0.00,,,0.01,0.000000,,2014-01-01 01:11:00,
2013-12-31 19:22:00,2.0,-11.0,-100.00,NNW,336,6.0,10.0,54,0.00,,,0.01,0.000000,,2014-01-01 01:22:00,
2013-12-31 19:32:00,2.0,-11.0,-100.00,NNW,336,6.0,10.0,54,0.00,,,0.01,0.000000,,2014-01-01 01:32:00,
2013-12-31 19:42:00,2.0,-11.0,-100.00,NNW,336,6.0,10.0,54,0.00,,,0.01,0.000000,,2014-01-01 01:42:00,
2013-12-31 20:12:00,-2.0,-13.0,-100.00,NW,324,4.0,9.0,57,0.00,,,0.01,0.000000,,2014-01-01 02:12:00,
2013-12-31 20:22:00,-2.0,-13.0,-100.00,NW,324,4.0,9.0,57,0.00,,,0.01,0.000000,,2014-01-01 02:22:00,
2013-12-31 20:32:00,-2.0,-13.0,-100.00,NW,324,4.0,9.0,57,0.00,,,0.01,0.000000,,2014-01-01 02:32:00,
2013-12-31 20:42:00,-2.0,-13.0,-100.00,NW,324,4.0,9.0,57,0.00,,,0.01,0.000000,,2014-01-01 02:42:00,
2013-12-31 21:12:00,-5.0,-14.0,-100.00,North,7,3.0,7.0,63,0.00,,,0.01,0.000000,,2014-01-01 03:12:00,
2013-12-31 21:22:00,-5.0,-14.0,-100.00,North,7,3.0,7.0,63,0.00,,,0.01,0.000000,,2014-01-01 03:22:00,
2013-12-31 21:33:00,-5.0,-14.0,-100.00,North,7,3.0,7.0,63,0.00,,,0.01,0.000000,,2014-01-01 03:33:00,
2013-12-31 21:43:00,-5.0,-14.0,-100.00,North,7,3.0,7.0,63,0.00,,,0.01,0.000000,,2014-01-01 03:43:00,
2013-12-31 22:13:00,-6.0,-16.0,-100.00,NE,36,3.0,7.0,60,0.00,,,0.00,0.000000,,2014-01-01 04:13:00,
2013-12-31 22:23:00,-6.0,-16.0,-100.00,NE,36,3.0,7.0,60,0.00,,,0.00,0.000000,,2014-01-01 04:23:00,
2013-12-31 22:33:00,-6.0,-16.0,-100.00,NE,36,3.0,7.0,60,0.00,,,0.00,0.000000,,2014-01-01 04:33:00,
2013-12-31 22:43:00,-6.0,-16.0,-100.00,NE,36,3.0,7.0,60,0.00,,,0.00,0.000000,,2014-01-01 04:43:00,